OH2NJR Weather Reports


Display with metric or nautical units.
time (UTC)temp
F
wind
direction
speed
MPH
gust
MPH
rain 1hr
in
rain 24hr
in
rain mn
in
humidity
%
barometer
mb
20260506112013 47 192 6.0 13.0 0.00 0.00 0.00 58 1013.7
20260506110203 45 196 11.0 17.0 0.00 0.00 0.00 64 13.7
20260506110200 45 196 11.0 17.0 0.00 0.00 0.00 64 1013.7
20260506104604 46 199 6.0 12.0 0.00 0.00 0.00 58 1013.7
20260506104558 46 199 6.0 12.0 0.00 0.00 0.00 58 1013.7
20260506102718 46 205 4.0 8.0 0.00 0.00 0.00 60 1013.7
20260506100723 51 128 2.0 5.0 0.00 0.00 0.00 47 1013.6
20260506094751 0 206 4.0 9.0 0.00 0.00 0.00 46 1013.4
20260506094748 50 206 4.0 9.0 0.00 0.00 0.00 46 1013.4
20260506092943 51 183 2.0 5.0 0.00 0.00 0.00 30 1013.3
20260506091113 50 357 2.0 4.0 0.00 0.00 0.00 31 1013.3
20260506085233 47 341 3.0 6.0 0.00 0.00 0.00 44 1013.0
20260506083608 48 291 2.0 4.0 0.00 0.00 0.00 41 1013.0
20260506081738 47 299 3.0 10.0 0.00 0.00 0.00 44 1012.9
20260506072321 47 62 3.0 0.0 0.00 0.00 0.00 49 1012.6
20260506072318 47 62 3.0 5.0 0.00 0.00 0.00 49 1012.6
20260506070430 46 284 2.0 6.0 0.00 0.00 0.00 49 1012.5
20260506061228 44 15 2.0 5.0 0.00 0.00 0.00 58 1012.3
20260506050238 40 162 2.0 6.0 0.00 0.00 0.00 69 1011.6
20260506044533 37 303 5.0 9.0 0.00 0.00 0.00 78 1011.2
20260506042648 37 94 1.0 3.0 0.00 0.00 0.00 77 1011.0
20260506040728 37 346 2.0 4.0 0.00 0.00 0.00 78 1010.9
20260506034838 36 103 2.0 6.0 0.00 0.00 0.00 78 1010.8
20260506032903 36 95 1.0 5.0 0.00 0.00 0.00 78 1010.6
20260506031038 36 42 1.0 3.0 0.00 0.00 0.00 78 1010.6
20260506025228 36 71 1.0 3.0 0.00 0.00 0.00 78 1010.4
20260506023303 36 44 1.0 3.0 0.00 0.00 0.00 78 1010.2
20260506021658 35 316 2.0 4.0 0.00 0.00 0.00 78 1010.1
20260506015758 35 305 2.0 4.0 0.00 0.00 0.00 77 1010.1
20260506014134 35 301 2.0 5.0 0.00 0.00 0.00 78 1010.0
20260506012353 36 293 4.0 7.0 0.00 0.00 0.00 77 1010.0
20260506010417 36 305 2.0 6.0 0.00 0.00 0.00 76 1009.9
20260506004558 37 338 2.0 6.0 0.00 0.00 0.00 75 1009.3
20260506002842 37 96 2.0 6.0 0.00 0.00 0.00 73 1009.2
20260506001129 38 254 2.0 6.0 0.00 0.00 0.00 74 1009.1
20260506001123 38 254 2.0 6.0 0.00 0.00 0.00 74 1009.1
20260505235247 38 344 3.0 5.0 0.00 0.00 0.00 74 1009.0
20260505233623 38 335 2.0 5.0 0.00 0.00 0.00 73 1008.8
20260505231938 39 342 3.0 9.0 0.00 0.00 0.00 72 1008.8
20260505230258 39 160 2.0 6.0 0.00 0.00 0.00 70 1008.6
20260505224648 39 352 2.0 6.0 0.00 0.00 0.00 71 1008.6
20260505222808 39 351 3.0 7.0 0.00 0.00 0.00 70 1008.6
20260505221033 39 97 3.0 9.0 0.00 0.00 0.00 68 1008.4
20260505215118 40 24 3.0 6.0 0.00 0.00 0.00 67 1008.4
20260505213143 40 100 2.0 8.0 0.00 0.00 0.00 65 1008.3
20260505211528 41 133 2.0 6.0 0.00 0.00 0.00 63 1008.1
20260505205929 42 21 2.0 7.0 0.00 0.00 0.00 58 1007.3
20260505203953 43 150 3.0 8.0 0.00 0.00 0.00 57 1007.2
20260505202033 43 298 3.0 8.0 0.00 0.00 0.00 54 1007.2
20260505200333 44 115 2.0 6.0 0.00 0.00 0.00 50 1007.0
20260505194648 44 41 3.0 7.0 0.00 0.00 0.00 49 1006.9
20260505192658 45 113 3.0 7.0 0.00 0.00 0.00 45 1006.9
20260505190823 45 59 3.0 7.0 0.00 0.00 0.00 46 1006.6
20260505185043 45 99 2.0 5.0 0.00 0.00 0.00 46 1006.4
20260505183343 46 122 3.0 10.0 0.00 0.00 0.00 42 1006.3
20260505181528 46 333 4.0 8.0 0.00 0.00 0.00 45 1006.1
20260505175548 47 110 4.0 9.0 0.00 0.00 0.00 45 1006.0
20260505173753 48 271 4.0 9.0 0.00 0.00 0.00 43 1006.0
20260505171819 48 149 3.0 9.0 0.00 0.00 0.00 42 1005.9
20260505165942 50 339 4.0 10.0 0.00 0.00 0.00 33 1005.4
20260505164343 50 125 4.0 8.0 0.00 0.00 0.00 37 1005.2
20260505162518 50 305 4.0 9.0 0.00 0.00 0.00 38 1005.1
20260505160726 51 110 3.0 6.0 0.00 0.00 0.00 33 1005.1
20260505153120 52 323 4.0 10.0 0.00 0.00 0.00 35 1004.9
20260505151128 51 349 4.0 8.0 0.00 0.00 0.00 35 1005.0
20260505130303 53 78 5.0 11.0 0.00 0.00 0.00 38 1004.2
20260505124531 51 354 3.0 11.0 0.00 0.00 0.00 45 1004.0
20260505124523 51 354 3.0 11.0 0.00 0.00 0.00 45 1004.0
20260505122732 52 357 3.0 8.0 0.00 0.00 0.00 40 1003.7
20260505121118 52 314 5.0 12.0 0.00 0.00 0.00 39 1003.7
20260505115153 52 306 6.0 17.0 0.00 0.01 0.00 43 1003.5